Terug naar catalogus

STARLINK-34587

ActiefCommunicatieVLEO
NORAD 64735·PAYLOAD·🇺🇸 United States

Gelanceerd Jul 2, 2025 vanaf Cape Canaveral Space Force Station

Loading…

Volgende Passages (komende 24 uur)

TLE

VersSource: CelesTrak SupGP

Epoch: Sep 15, 2026, 03:02 UTC

1 64735C 25144M   26258.12687500  .00039055  00000+0  11538-2 0  2582
2 64735  53.1609  20.6636 0001200  90.7550 215.7028 15.34372469    13

Volg STARLINK-34587 in realtime met AllMySat

Download on the App Store